Regional Weather Roundup
Issued by NWS

Home | Current Version | Previous Version | Graphics & Text | Print | Product List | Glossary On
Versions: 1 2 3 4 5 6 7 8 9 10 11 12 13 14 15 16 17 18 19 20 21 22 23 24 25 26 27 28 29 30 31 32 33 34 35 36 37 38 39 40 41 42 43 44 45 46 47 48 49 50
000
ASUS43 KOAX 130510
RWRNE

WEATHER ROUNDUP FOR NEBRASKA
NATIONAL WEATHER SERVICE OMAHA NE
1200 AM CDT SUN JUL 13 2014

NOTES: SATELLITE DATA IS BEING USED TO AUGMENT CLOUD COVER ABOVE
       12000 FEET.
       "FAIR" INDICATES FEW OR NO CLOUDS BELOW 12,000 FEET WITH NO
       SIGNIFICANT WEATHER AND/OR OBSTRUCTIONS TO VISIBILITY.

  * THESE STATIONS DO NOT REPORT WEATHER SUCH AS RAIN...SNOW OR FOG.

NEZ001>004-019>022-054>056-130600-
NEBRASKA PANHANDLE

CITY           SKY/WX    TMP DP  RH WIND       PRES   REMARKS
SCOTTSBLUFF    MOCLDY    67  65  93 NW3       30.24F
ALLIANCE       MOCLDY    67  62  84 N6        30.23S
CHADRON        PTCLDY    64  58  80 CALM      30.22S
KIMBALL        PTCLDY    64  59  86 CALM      30.30R
SIDNEY         PTCLDY    62  56  80 N6        30.27F
$$

NEZ057>060-069>072-079>082-130600-
SOUTHWEST NEBRASKA

CITY           SKY/WX    TMP DP  RH WIND       PRES   REMARKS
NORTH PLATTE   CLEAR     67  63  87 CALM      30.15S
IMPERIAL       MOCLDY    69  65  86 N7        30.18R
LEXINGTON      CLEAR     68  67  94 N6        30.11F
MCCOOK         MOCLDY    70  66  87 N5        30.13R
OGALLALA       PTCLDY    67  62  81 CALM      30.18S
$$

NEZ005>010-023>029-035>040-094-130600-
NORTH CENTRAL NEBRASKA

CITY           SKY/WX    TMP DP  RH WIND       PRES   REMARKS
VALENTINE      CLEAR     66  65  96 NW5       30.15R
AINSWORTH      CLEAR     69  63  81 NW3       30.14S
BROKEN BOW     CLEAR     66  64  93 N5        30.12F
O`NEILL        CLEAR     69  63  82 W3        30.10S
ORD            CLEAR     66  64  93 CALM      30.08F
THEDFORD       CLEAR     71  64  78 CALM      30.16F
$$

NEZ041-046>049-061>064-073>077-083>087-130600-
SOUTH CENTRAL NEBRASKA

CITY           SKY/WX    TMP DP  RH WIND       PRES   REMARKS
GRAND ISLAND   CLEAR     69  66  90 CALM      30.07F
AURORA         CLEAR     69  68  98 CALM      30.06S
HASTINGS       PTCLDY    71  65  81 NE5       30.08R
HEBRON         TSTM      73  70  90 E18       30.04F VSB 1
HOLDREGE       PTCLDY    68  65  92 N3        30.10R
KEARNEY *      PTCLDY    70  66  88 N5        30.09F
YORK           PTCLDY    68  68 100 CALM      30.06R
$$

NEZ011>018-030>034-042>045-130600-
NORTHEAST NEBRASKA

CITY           SKY/WX    TMP DP  RH WIND       PRES   REMARKS
NORFOLK        CLEAR     66  64  93 W5        30.04F
ALBION         CLEAR     65  64  93 NW3       30.07S
BLAIR          CLEAR     70  65  84 N5        30.00S
TEKAMAH        CLEAR     66  64  93 N6        29.99F
WAYNE          CLEAR     65  64  97 CALM      30.03F
$$

NEZ050>053-065>068-078-088>093-130600-
SOUTHEAST NEBRASKA

CITY           SKY/WX    TMP DP  RH WIND       PRES   REMARKS
LINCOLN        PTCLDY    73  67  81 CALM      30.05R
OMAHA EPPLEY   PTCLDY    71  66  84 CALM      30.00S
BEATRICE       CLOUDY    67  67  97 W6        30.07R
FALLS CITY     MOCLDY    77  73  87 N10       29.98R
NEBRASKA CITY  MOCLDY    72  72 100 N8        30.01F
PLATTSMOUTH    MOCLDY    72  67  87 CALM      30.03R
$$

NEZ044-045-051>053-067-130600-
OMAHA AREA

CITY           SKY/WX    TMP DP  RH WIND       PRES   REMARKS
OMAHA EPPLEY   PTCLDY    71  66  84 CALM      30.00S
BLAIR          CLEAR     70  65  84 N5        30.00S
MILLARD        CLEAR     72  67  84 CALM      30.02R
PLATTSMOUTH    MOCLDY    72  67  87 CALM      30.03R
WAHOO          FAIR      68  65  89 CALM      30.02R
$$


USA.gov is the U.S. government's official web portal to all federal, state and local government web resources and services.